Вернуться в каталог

DELTA 1 DEB *

АктивенUNKNOWN
NORAD 18591·DEBRIS·🇺🇸 United States

Запущен Jul 29, 1976 с Vandenberg Space Force Base

Loading…

Ближайшие Пролёты (ближайшие 24 часа)

TLE

СвежийSource: Space-Track

Эпоха: Sep 14, 2026, 10:37 UTC

1 18591U 76077FD  26257.44266505  .00000088  00000-0  23293-2 0  9992
2 18591 101.0042 251.9089 1105382  42.8405 102.8914 10.59570177601241

Отслеживайте DELTA 1 DEB * в реальном времени с AllMySat

Download on the App Store